Tracking 28790 objects as of 18-Apr-2024
HD Live streaming from Space Station
objects crossing your sky now

COSMOS 1375 DEB

Track COSMOS 1375 DEB now!
10-day predictions


NORAD ID: 18477
Int'l Code: 1982-055BF
Perigee: 790.6 km
Apogee: 813.1 km
Inclination: 65.8 °
Period: 100.8 minutes
Semi major axis: 7172 km
RCS: 0.0083 m2 (small)
Launch date: June 6, 1982
Source: Commonwealth of Independent States (former USSR) (CIS)
Launch site: PLESETSK MISSILE AND SPACE COMPLEX (PKMTR)

Note: This is SATELLITE DEBRIS
Your satellite tracking list
Your tracking list is empty




NASA's NSSDC Master Catalog

Two Line Element Set (TLE):
1 18477U 82055BF  24108.71796164  .00017485  00000-0  68939-2 0  9995
2 18477  65.8222 227.4714 0015659  22.0904 338.0857 14.29114027964367
Source of the keplerian elements: AFSPC